Time,TemperatureF,DewpointF,PressureIn,WindDirection,WindDirectionDegrees,WindSpeedMPH,WindSpeedGustMPH,Humidity,HourlyPrecipIn,Conditions,Clouds,dailyrainin,SolarRadiationWatts/m^2,SoftwareType,DateUTC
2013-02-07 00:00:00,42.5,40.6,29.93,WSW,248,1.0,3.0,93,0.00,RA,,0.00,0.0,WeatherDisplay:10.37,2013-02-07 08:00:00,
2013-02-07 00:15:00,42.8,40.1,29.93,WSW,238,1.0,6.0,90,0.00,CLR,,0.00,0.0,WeatherDisplay:10.37,2013-02-07 08:15:00,
2013-02-07 00:30:00,42.5,40.3,29.93,WSW,253,0.0,2.0,92,0.00,CLR,,0.00,0.0,WeatherDisplay:10.37,2013-02-07 08:30:00,
2013-02-07 00:45:00,42.5,40.3,29.95,WSW,252,1.0,4.0,92,0.00,CLR,,0.00,0.0,WeatherDisplay:10.37,2013-02-07 08:45:00,
2013-02-07 01:00:00,42.7,39.4,29.96,SW,222,1.0,10.0,88,0.00,CLR,,0.00,0.0,WeatherDisplay:10.37,2013-02-07 09:00:00,
2013-02-07 01:15:00,42.3,39.3,29.97,SSW,196,0.0,6.0,89,0.00,CLR,,0.00,0.0,WeatherDisplay:10.37,2013-02-07 09:15:00,
2013-02-07 01:30:00,42.2,39.5,29.98,SE,128,1.0,6.0,90,0.00,CLR,,0.00,0.0,WeatherDisplay:10.37,2013-02-07 09:30:00,
2013-02-07 01:45:00,42.2,39.5,29.98,SSE,158,3.0,7.0,90,0.00,CLR,,0.00,0.0,WeatherDisplay:10.37,2013-02-07 09:45:00,
2013-02-07 02:00:00,42.1,39.4,29.99,SE,139,2.0,8.0,90,0.00,CLR,,0.00,0.0,WeatherDisplay:10.37,2013-02-07 10:00:00,
2013-02-07 02:15:00,41.9,38.9,30.00,SE,136,3.0,7.0,89,0.00,CLR,,0.00,0.0,WeatherDisplay:10.37,2013-02-07 10:15:00,
2013-02-07 02:30:00,41.9,38.9,30.00,SE,126,2.0,8.0,89,0.00,CLR,,0.00,0.0,WeatherDisplay:10.37,2013-02-07 10:30:00,
2013-02-07 02:45:00,41.8,39.1,30.00,SSE,154,1.0,5.0,90,0.00,CLR,,0.00,0.0,WeatherDisplay:10.37,2013-02-07 10:45:00,
2013-02-07 03:00:00,41.9,39.1,30.00,South,173,0.0,5.0,90,0.00,CLR,,0.00,0.0,WeatherDisplay:10.37,2013-02-07 11:00:00,
2013-02-07 03:15:00,41.8,39.4,30.01,ESE,116,0.0,3.0,91,0.00,CLR,,0.00,0.0,WeatherDisplay:10.37,2013-02-07 11:15:00,
2013-02-07 03:30:00,41.6,39.4,30.01,SSE,162,1.0,4.0,92,0.00,CLR,,0.00,0.0,WeatherDisplay:10.37,2013-02-07 11:30:00,
2013-02-07 03:45:00,41.6,39.2,30.01,South,179,1.0,7.0,91,0.00,CLR,,0.00,0.0,WeatherDisplay:10.37,2013-02-07 11:45:00,
2013-02-07 04:00:00,41.6,38.9,30.02,South,189,3.0,8.0,90,0.00,CLR,,0.00,0.0,WeatherDisplay:10.37,2013-02-07 12:00:00,
2013-02-07 04:15:00,41.5,38.7,30.02,SSW,192,1.0,7.0,90,0.00,CLR,,0.00,0.0,WeatherDisplay:10.37,2013-02-07 12:15:00,
2013-02-07 04:30:00,41.3,38.6,30.03,South,180,1.0,7.0,90,0.00,CLR,,0.00,0.0,WeatherDisplay:10.37,2013-02-07 12:30:00,
2013-02-07 04:45:00,41.0,38.3,30.03,South,181,2.0,4.0,90,0.00,CLR,,0.00,0.0,WeatherDisplay:10.37,2013-02-07 12:45:00,
2013-02-07 05:00:00,41.0,38.3,30.03,South,181,1.0,6.0,90,0.00,CLR,,0.00,0.0,WeatherDisplay:10.37,2013-02-07 13:00:00,
2013-02-07 05:15:00,40.7,38.3,30.03,SSE,165,1.0,3.0,91,0.00,CLR,,0.00,0.0,WeatherDisplay:10.37,2013-02-07 13:15:00,
2013-02-07 05:30:00,40.6,38.1,30.03,South,177,0.0,6.0,91,0.00,CLR,,0.00,0.0,WeatherDisplay:10.37,2013-02-07 13:30:00,
2013-02-07 05:45:00,40.4,38.0,30.04,SSW,195,0.0,3.0,91,0.00,CLR,,0.00,0.0,WeatherDisplay:10.37,2013-02-07 13:45:00,
2013-02-07 06:00:00,40.5,38.1,30.04,SSW,192,1.0,5.0,91,0.00,CLR,,0.00,0.0,WeatherDisplay:10.37,2013-02-07 14:00:00,
2013-02-07 06:15:00,40.4,38.0,30.04,SSW,206,0.0,4.0,91,0.00,CLR,,0.00,0.0,WeatherDisplay:10.37,2013-02-07 14:15:00,
2013-02-07 06:30:00,40.4,38.3,30.04,SSW,207,0.0,3.0,92,0.00,CLR,,0.00,0.0,WeatherDisplay:10.37,2013-02-07 14:30:00,
2013-02-07 06:45:00,40.6,38.4,30.04,SSE,157,1.0,5.0,92,0.00,CLR,,0.00,0.0,WeatherDisplay:10.37,2013-02-07 14:45:00,
2013-02-07 07:00:00,40.6,38.4,30.04,South,184,2.0,6.0,92,0.00,OVC,,0.00,0.0,WeatherDisplay:10.37,2013-02-07 15:00:00,
2013-02-07 07:15:00,40.6,38.2,30.04,SSE,165,0.0,8.0,91,0.00,OVC,,0.00,0.0,WeatherDisplay:10.37,2013-02-07 15:15:00,
2013-02-07 07:30:00,40.5,38.1,30.04,ESE,115,1.0,3.0,91,0.00,OVC,,0.00,0.0,WeatherDisplay:10.37,2013-02-07 15:30:00,
2013-02-07 07:45:00,40.4,38.0,30.05,South,173,2.0,4.0,91,0.00,CLR,,0.00,20.2,WeatherDisplay:10.37,2013-02-07 15:45:00,
2013-02-07 08:00:00,40.2,37.8,30.05,SSE,168,1.0,4.0,91,0.00,SCT,,0.00,20.2,WeatherDisplay:10.37,2013-02-07 16:00:00,
2013-02-07 08:15:00,40.2,37.8,30.06,SSW,203,1.0,5.0,91,0.00,BKN,,0.00,20.2,WeatherDisplay:10.37,2013-02-07 16:15:00,
2013-02-07 08:30:00,40.4,38.0,30.07,South,181,1.0,4.0,91,0.00,OVC,,0.00,20.2,WeatherDisplay:10.37,2013-02-07 16:30:00,
2013-02-07 08:45:00,40.6,37.6,30.07,South,180,5.0,8.0,89,0.00,OVC,,0.00,20.2,WeatherDisplay:10.37,2013-02-07 16:45:00,
2013-02-07 09:00:00,40.9,38.2,30.07,SSE,167,3.0,6.0,90,0.00,OVC,,0.00,20.2,WeatherDisplay:10.37,2013-02-07 17:00:00,
2013-02-07 09:15:00,40.9,37.9,30.08,SSE,158,3.0,8.0,89,0.00,OVC,,0.00,20.2,WeatherDisplay:10.37,2013-02-07 17:15:00,
2013-02-07 09:30:00,41.1,38.1,30.08,SSE,154,1.0,6.0,89,0.00,OVC,,0.00,20.2,WeatherDisplay:10.37,2013-02-07 17:30:00,
2013-02-07 09:45:00,41.3,38.3,30.08,SSE,161,1.0,8.0,89,0.00,OVC,,0.00,20.2,WeatherDisplay:10.37,2013-02-07 17:45:00,
2013-02-07 10:00:00,41.9,38.6,30.08,SE,139,2.0,4.0,88,0.00,OVC,,0.00,20.2,WeatherDisplay:10.37,2013-02-07 18:00:00,
2013-02-07 10:15:00,42.1,38.8,30.08,SE,144,2.0,5.0,88,0.00,OVC,,0.00,20.2,WeatherDisplay:10.37,2013-02-07 18:15:00,
2013-02-07 10:30:00,42.1,38.8,30.08,ESE,119,3.0,6.0,88,0.00,OVC,,0.00,20.2,WeatherDisplay:10.37,2013-02-07 18:30:00,
2013-02-07 10:45:00,42.2,38.9,30.08,South,179,1.0,6.0,88,0.00,OVC,,0.00,20.2,WeatherDisplay:10.37,2013-02-07 18:45:00,
2013-02-07 11:00:00,42.7,39.1,30.08,South,186,0.0,4.0,87,0.00,OVC,,0.00,20.2,WeatherDisplay:10.37,2013-02-07 19:00:00,
2013-02-07 11:15:00,43.2,39.0,30.09,SE,144,2.0,5.0,85,0.00,OVC,,0.00,20.2,WeatherDisplay:10.37,2013-02-07 19:15:00,
2013-02-07 11:30:00,43.3,39.4,30.08,South,180,0.0,5.0,86,0.00,OVC,,0.00,20.2,WeatherDisplay:10.37,2013-02-07 19:30:00,
2013-02-07 11:45:00,43.6,39.1,30.08,SSE,163,3.0,6.0,84,0.00,OVC,,0.00,20.2,WeatherDisplay:10.37,2013-02-07 19:45:00,
2013-02-07 12:00:00,44.1,39.6,30.08,ESE,116,2.0,5.0,84,0.00,OVC,,0.00,20.2,WeatherDisplay:10.37,2013-02-07 20:00:00,
2013-02-07 12:15:00,45.0,39.5,30.07,ESE,110,5.0,8.0,81,0.00,OVC,,0.00,20.2,WeatherDisplay:10.37,2013-02-07 20:15:00,
2013-02-07 12:30:00,44.7,38.9,30.06,SE,124,1.0,8.0,80,0.00,OVC,,0.00,20.2,WeatherDisplay:10.37,2013-02-07 20:30:00,
2013-02-07 12:45:00,45.8,39.3,30.06,SSW,194,3.0,6.0,78,0.00,OVC,,0.00,20.2,WeatherDisplay:10.37,2013-02-07 20:45:00,
2013-02-07 13:00:00,46.3,39.8,30.06,SSE,150,1.0,5.0,78,0.00,OVC,,0.00,20.2,WeatherDisplay:10.37,2013-02-07 21:00:00,
2013-02-07 13:15:00,46.3,39.5,30.06,SW,236,2.0,7.0,77,0.00,OVC,,0.00,20.2,WeatherDisplay:10.37,2013-02-07 21:15:00,
2013-02-07 13:30:00,47.0,39.1,30.05,SW,232,3.0,7.0,74,0.00,OVC,,0.00,20.2,WeatherDisplay:10.37,2013-02-07 21:30:00,
2013-02-07 13:45:00,46.5,38.6,30.05,SW,214,2.0,8.0,74,0.00,OVC,,0.00,20.2,WeatherDisplay:10.37,2013-02-07 21:45:00,
2013-02-07 14:00:00,46.5,39.0,30.05,SW,226,1.0,4.0,75,0.00,OVC,,0.00,20.2,WeatherDisplay:10.37,2013-02-07 22:00:00,
2013-02-07 14:15:00,46.9,38.0,30.05,ESE,121,1.0,3.0,71,0.00,OVC,,0.00,20.2,WeatherDisplay:10.37,2013-02-07 22:15:00,
2013-02-07 14:30:00,47.7,38.4,30.05,SSW,206,1.0,4.0,70,0.00,OVC,,0.00,20.2,WeatherDisplay:10.37,2013-02-07 22:30:00,
2013-02-07 14:45:00,47.8,38.1,30.05,West,259,1.0,4.0,69,0.00,OVC,,0.00,20.2,WeatherDisplay:10.37,2013-02-07 22:45:00,
2013-02-07 15:00:00,48.1,37.6,30.05,ENE,70,3.0,7.0,67,0.00,OVC,,0.00,20.2,WeatherDisplay:10.37,2013-02-07 23:00:00,
2013-02-07 15:15:00,47.4,37.7,30.05,NE,51,1.0,4.0,69,0.00,OVC,,0.00,20.2,WeatherDisplay:10.37,2013-02-07 23:15:00,
2013-02-07 15:30:00,47.3,37.3,30.05,ENE,73,2.0,5.0,68,0.00,OVC,,0.00,20.2,WeatherDisplay:10.37,2013-02-07 23:30:00,
2013-02-07 15:45:00,47.0,37.7,30.05,ENE,57,1.0,5.0,70,0.00,OVC,,0.00,20.2,WeatherDisplay:10.37,2013-02-07 23:45:00,
2013-02-07 16:00:00,46.9,37.3,30.05,NE,38,0.0,3.0,69,0.00,OVC,,0.00,20.2,WeatherDisplay:10.37,2013-02-08 00:00:00,
2013-02-07 16:15:00,47.1,37.8,30.06,NE,38,1.0,2.0,70,0.00,OVC,,0.00,20.2,WeatherDisplay:10.37,2013-02-08 00:15:00,
2013-02-07 16:30:00,47.3,38.4,30.06,NE,56,2.0,4.0,71,0.00,OVC,,0.00,20.2,WeatherDisplay:10.37,2013-02-08 00:30:00,
2013-02-07 16:45:00,47.0,39.8,30.07,ENE,57,0.0,3.0,76,0.00,BKN,,0.00,20.2,WeatherDisplay:10.37,2013-02-08 00:45:00,
2013-02-07 17:00:00,45.8,39.0,30.07,ENE,57,1.0,2.0,77,0.00,BKN,,0.00,21.2,WeatherDisplay:10.37,2013-02-08 01:00:00,
2013-02-07 17:15:00,44.1,38.3,30.08,ENE,57,1.0,2.0,80,0.00,CLR,,0.00,21.2,WeatherDisplay:10.37,2013-02-08 01:15:00,
2013-02-07 17:30:00,43.2,38.7,30.08,ENE,57,1.0,2.0,84,0.00,OVC,,0.00,0.0,WeatherDisplay:10.37,2013-02-08 01:30:00,
2013-02-07 17:45:00,42.9,39.0,30.08,ENE,57,0.0,2.0,86,0.00,OVC,,0.00,0.0,WeatherDisplay:10.37,2013-02-08 01:45:00,
2013-02-07 18:00:00,42.6,38.7,30.09,ENE,57,1.0,2.0,86,0.00,CLR,,0.00,0.0,WeatherDisplay:10.37,2013-02-08 02:00:00,
2013-02-07 18:15:00,42.2,38.9,30.09,ENE,57,0.0,2.0,88,0.00,CLR,,0.00,0.0,WeatherDisplay:10.37,2013-02-08 02:15:00,
2013-02-07 18:30:00,41.6,38.6,30.09,ENE,57,1.0,2.0,89,0.00,CLR,,0.00,0.0,WeatherDisplay:10.37,2013-02-08 02:30:00,
2013-02-07 18:45:00,41.0,38.3,30.09,ENE,57,1.0,2.0,90,0.00,CLR,,0.00,0.0,WeatherDisplay:10.37,2013-02-08 02:45:00,
2013-02-07 19:00:00,40.2,37.8,30.10,North,349,1.0,3.0,91,0.00,CLR,,0.00,0.0,WeatherDisplay:10.37,2013-02-08 03:00:00,
2013-02-07 19:15:00,39.6,37.2,30.11,North,5,2.0,3.0,91,0.00,CLR,,0.00,0.0,WeatherDisplay:10.37,2013-02-08 03:15:00,
2013-02-07 19:30:00,39.0,36.6,30.11,North,355,2.0,3.0,91,0.00,CLR,,0.00,0.0,WeatherDisplay:10.37,2013-02-08 03:30:00,
2013-02-07 19:45:00,38.1,35.7,30.12,North,355,0.0,2.0,91,0.00,CLR,,0.00,0.0,WeatherDisplay:10.37,2013-02-08 03:45:00,
2013-02-07 20:00:00,37.5,35.6,30.12,NNW,344,1.0,2.0,93,0.00,CLR,,0.00,0.0,WeatherDisplay:10.37,2013-02-08 04:00:00,
2013-02-07 20:15:00,36.9,35.1,30.13,WNW,294,1.0,3.0,93,0.00,CLR,,0.00,0.0,WeatherDisplay:10.37,2013-02-08 04:15:00,
2013-02-07 20:30:00,36.2,34.4,30.13,NW,309,1.0,2.0,93,0.00,CLR,,0.00,0.0,WeatherDisplay:10.37,2013-02-08 04:30:00,
2013-02-07 20:45:00,35.7,34.1,30.15,NW,309,0.0,1.0,94,0.00,CLR,,0.00,0.0,WeatherDisplay:10.37,2013-02-08 04:45:00,
2013-02-07 21:00:00,35.1,33.5,30.15,NW,309,1.0,2.0,94,0.00,CLR,,0.00,0.0,WeatherDisplay:10.37,2013-02-08 05:00:00,
2013-02-07 21:15:00,34.6,33.1,30.16,NW,309,0.0,2.0,94,0.00,CLR,,0.00,0.0,WeatherDisplay:10.37,2013-02-08 05:15:00,
2013-02-07 21:30:00,34.3,33.0,30.16,NW,309,2.0,2.0,95,0.00,CLR,,0.00,0.0,WeatherDisplay:10.37,2013-02-08 05:30:00,
2013-02-07 21:45:00,33.9,32.6,30.16,NW,308,0.0,2.0,95,0.00,CLR,,0.00,0.0,WeatherDisplay:10.37,2013-02-08 05:45:00,
2013-02-07 22:00:00,33.4,32.1,30.17,NW,308,0.0,1.0,95,0.00,CLR,,0.00,0.0,WeatherDisplay:10.37,2013-02-08 06:00:00,
2013-02-07 22:15:00,33.2,32.2,30.17,NW,308,0.0,2.0,96,0.00,CLR,,0.00,0.0,WeatherDisplay:10.37,2013-02-08 06:15:00,
2013-02-07 22:30:00,33.3,32.3,30.18,NW,308,0.0,2.0,96,0.00,CLR,,0.00,0.0,WeatherDisplay:10.37,2013-02-08 06:30:00,
2013-02-07 22:45:00,32.9,31.6,30.18,NW,308,0.0,0.0,95,0.00,CLR,,0.00,0.0,WeatherDisplay:10.37,2013-02-08 06:45:00,
2013-02-07 23:00:00,32.4,31.4,30.19,NW,308,0.0,2.0,96,0.00,CLR,,0.00,0.0,WeatherDisplay:10.37,2013-02-08 07:00:00,
2013-02-07 23:15:00,32.1,30.8,30.19,NW,308,0.0,2.0,95,0.00,CLR,,0.00,0.0,WeatherDisplay:10.37,2013-02-08 07:15:00,
2013-02-07 23:30:00,31.4,30.2,30.20,NW,308,0.0,2.0,95,0.00,CLR,,0.00,0.0,WeatherDisplay:10.37,2013-02-08 07:30:00,
2013-02-07 23:45:00,31.0,30.0,30.20,NW,308,0.0,1.0,96,0.00,CLR,,0.00,0.0,WeatherDisplay:10.37,2013-02-08 07:45:00,